Hourly Data Report for February 20, 2005

TORONTO CITY
ONTARIO

43°40'00.000" N
79°24'00.000" W
112.50 m
6158355
71508
XTO

Download Data

Hourly Data (February 2005)
Hourly Data Report for February 20, 2005
TIME
LST
Temp Definition
°C
Dew Point Definition
°C
Rel Hum Definition
%
Precip. Amount Definition
mm

Wind Dir Definition
10's deg

Wind Spd Definition
km/h
Visibility Definition
km
Stn Press Definition
kPa
Hmdx Definition


Wind Chill Definition


Weather Definition


00:00 -5.6 -8.6 79   LegendMM LegendMM   101.46     LegendNANA
01:00 -6.0 -8.7 81   LegendMM LegendMM   101.50     LegendNANA
02:00 -6.3 -9.0 81   LegendMM LegendMM   101.49     LegendNANA
03:00 -6.7 -9.5 80   LegendMM LegendMM   101.53     LegendNANA
04:00 -7.3 -10.0 81   LegendMM LegendMM   101.55     LegendNANA
05:00 -7.3 -10.6 77   LegendMM LegendMM   101.62     LegendNANA
06:00 -6.9 -11.0 73   LegendMM LegendMM   101.63     LegendNANA
07:00 -7.1 -11.0 74   LegendMM LegendMM   101.66     LegendNANA
08:00 -6.5 -10.9 71   LegendMM LegendMM   101.70     LegendNANA
09:00 -6.1 -10.6 70   LegendMM LegendMM   101.68     LegendNANA
10:00 -4.4 -8.6 72   LegendMM LegendMM   101.65     LegendNANA
11:00 -3.3 -6.8 77   LegendMM LegendMM   101.60     LegendNANA
12:00 -3.3 -6.8 77   LegendMM LegendMM   101.51     LegendNANA
13:00 -3.3 -6.8 77   LegendMM LegendMM   101.42     LegendNANA
14:00 -3.2 -8.5 67   LegendMM LegendMM   101.25     LegendNANA
15:00 -3.3 -8.7 66   LegendMM LegendMM   101.08     LegendNANA
16:00 -2.9 -8.5 65   LegendMM LegendMM   100.97     LegendNANA
17:00 -2.7 -7.6 69   LegendMM LegendMM   100.83     LegendNANA
18:00 -2.4 -7.1 70   LegendMM LegendMM   100.82     LegendNANA
19:00 -3.3 -4.6 91   LegendMM LegendMM   100.67     LegendNANA
20:00 -3.3 -3.8 96   LegendMM LegendMM   100.52     LegendNANA
21:00 -2.9 -3.3 97   LegendMM LegendMM   100.36     LegendNANA
22:00 -2.8 -3.1 98   LegendMM LegendMM   100.14     LegendNANA
23:00 -2.3 -2.5 99   LegendMM LegendMM   99.99     LegendNANA

Notes on Data Quality.

Legend

  • E = Estimated
  • M = Missing
  • NA = Not Available*
  • [empty] = Indicates an unobserved value
Date modified: